Vorticity
14 15 15 15 14 13 12 11 11 11 11 11 11 10 10 10 9 9 9 9 10 10 11 11 11 10 10 10 10 10 10 10 10 10 10 10 10 10 10 9 9 9 9 9 9 9 9 10 10 10 10 10 10 10 10 10 10 10 10 13 12 11 9 9 10 11 12 12 12 12 12 11 10 10 9 9 8 8 7 7 6 6 6 6 6 6 6 6 7 7 8 8 9 10 10 10 10 10 10 9 9 9 9
8 10 11 12 13 13 13 13 13 13 13 13 13 13 13 13 12 12 12 12 12 13 13 13 13 13 13 13 13 13 13 13 13 13 12 12 11 11 10 10 10 10 10 10 10 10 10 10 10 10 11 10 10 10 11 11 10 10 12 14 13 11 9 9 10 10 11 10 10 9 8 7 7 6 6 5 5 5 4 4 4 4 4 4 4 4 4 5 5 5 6 6 7 8 9 10 10 10 10 10 9 9 9
5 6 6 7 8 10 10 11 12 12 13 13 13 13 13 13 13 13 14 14 14 14 14 14 14 14 14 14 14 14 13 13 13 12 12 11 11 10 10 10 10 10 10 10 10 10 10 10 10 10 10 10 10 10 10 10 9 9 12 13 12 9 7 8 8 8 7 6 6 5 5 4 4 4 4 4 4 4 4 4 4 4 4 4 4 4 4 4 4 4 4 4 5 6 7 8 9 10 10 10 10 9 9
5 4 4 4 5 5 6 6 7 7 8 8 8 9 9 9 10 10 11 11 11 10 10 10 10 10 10 10 10 10 9 9 9 8 8 8 8 7 7 7 7 7 7 7 7 7 7 7 7 7 7 7 7 8 8 8 7 7 9 10 8 6 5 5 5 5 4 4 4 3 3 3 3 3 3 3 4 4 4 5 5 5 4 5 4 4 4 4 4 4 4 4 4 5 5 6 7 8 9 10 10 10 10
6 5 4 4 4 4 4 4 4 4 4 4 4 5 5 5 6 6 6 6 6 6 6 6 6 6 5 5 5 5 5 5 5 5 5 5 5 5 5 5 5 5 5 5 5 5 5 5 5 5 5 5 6 6 6 6 5 6 7 6 4 3 3 3 3 3 3 3 3 3 3 3 3 3 3 4 4 4 4 5 5 5 5 5 5 5 5 5 5 5 6 5 4 4 5 5 6 6 7 8 9 10 10
7 6 6 5 4 4 4 4 4 4 4 4 4 4 4 4 4 5 5 5 4 4 4 4 4 4 4 4 4 4 4 4 4 5 5 5 5 5 5 5 5 5 5 5 5 5 5 5 5 5 5 5 5 5 5 5 5 5 6 4 3 2 2 2 2 2 2 3 3 3 3 3 3 3 3 3 4 4 4 4 5 5 6 6 6 6 6 6 6 6 5 4 4 5 5 5 5 5 5 6 6 7 8
8 8 7 6 6 5 5 5 4 4 4 4 4 4 4 5 5 5 5 5 5 5 5 4 4 4 4 4 5 5 5 5 5 5 5 5 5 5 6 6 6 6 5 5 5 5 5 6 6 6 6 6 6 5 5 5 6 6 5 4 3 3 2 2 2 2 3 3 3 2 2 2 2 2 2 3 3 3 4 4 4 5 5 6 6 6 6 6 6 6 6 6 6 6 6 5 5 5 4 5 5 5 6
9 8 8 7 7 6 6 6 5 5 5 5 5 5 5 5 5 5 5 5 5 5 5 5 4 4 5 5 5 5 5 5 6 6 6 6 6 6 6 6 6 6 6 6 6 6 6 6 6 6 6 6 6 6 6 6 6 6 5 4 4 3 3 3 3 3 3 3 2 2 2 2 2 2 2 3 3 3 4 4 4 5 5 5 6 6 6 7 7 7 7 7 6 6 6 6 6 5 5 4 4 4 4
9 8 8 8 8 7 7 6 6 6 6 5 5 5 5 5 5 5 5 4 4 4 4 4 4 4 4 4 5 5 5 5 5 5 5 6 6 6 6 6 6 6 6 6 6 6 6 6 6 6 6 6 6 6 6 6 6 6 5 5 4 4 3 3 3 3 3 3 2 2 2 2 2 2 3 3 3 4 4 4 5 5 5 6 6 6 6 7 7 7 7 7 7 7 6 6 6 6 5 5 4 4 4
8 8 8 8 8 8 8 7 7 6 6 6 5 5 5 5 5 4 4 4 4 4 4 4 4 4 4 4 4 4 4 5 5 5 5 5 5 5 5 5 6 6 6 6 6 6 6 6 6 6 6 6 6 6 6 6 6 5 5 5 4 4 3 3 3 3 3 2 2 2 2 2 3 3 3 4 4 4 4 5 5 6 6 6 6 6 7 7 7 7 8 7 7 7 7 6 6 6 6 6 6 5 4
6 7 8 8 8 8 8 8 7 7 6 6 5 5 5 5 4 4 4 4 4 4 4 4 4 4 4 4 4 4 4 4 4 4 5 5 5 5 5 5 6 6 6 6 6 6 6 6 6 6 6 6 6 6 6 6 6 5 5 4 4 3 3 3 3 3 3 3 3 3 3 3 4 4 4 4 4 5 5 5 6 6 6 6 7 7 7 7 8 8 8 8 8 7 7 7 7 7 7 7 7 6 5
4 6 7 7 8 8 9 8 8 8 7 6 6 6 6 5 4 4 4 4 4 4 4 4 4 4 4 4 4 4 4 4 4 5 5 5 5 5 6 6 6 6 6 6 6 6 6 6 6 6 6 6 6 6 6 6 5 5 4 4 4 3 3 3 3 3 3 3 3 4 4 4 4 5 5 5 5 5 6 6 6 6 6 7 7 7 7 8 8 9 9 8 8 8 8 8 8 8 8 8 8 7 6
2 4 5 6 7 8 9 9 8 8 7 7 7 6 6 6 5 4 4 4 4 4 4 4 4 4 4 4 4 4 4 4 4 5 5 5 5 6 6 6 6 6 6 6 6 6 6 6 6 6 6 5 5 6 6 6 5 4 4 4 4 4 3 3 3 4 4 4 4 5 5 5 5 6 6 6 6 6 6 6 6 7 7 7 7 8 8 9 9 10 10 10 9 9 10 10 10 10 9 9 8 8 7
1 2 3 4 5 7 8 8 8 8 8 8 8 7 7 7 6 5 4 4 4 4 4 4 4 4 4 4 4 4 4 4 4 4 4 5 5 5 5 5 6 6 6 6 6 6 6 6 5 5 5 5 5 6 6 6 5 4 4 4 4 4 4 4 4 4 5 5 5 6 6 6 6 6 7 7 7 7 7 7 7 7 8 8 8 8 9 9 10 10 11 11 10 10 10 11 11 11 10 10 9 9 8
1 1 2 2 4 5 7 7 7 7 8 8 8 8 8 8 7 6 5 4 4 4 4 4 4 4 4 4 4 4 4 4 4 4 4 4 4 4 5 5 5 5 5 6 6 6 6 6 6 5 5 5 6 6 7 6 5 4 4 5 5 5 5 5 5 6 6 6 7 7 7 7 7 8 8 8 8 8 8 8 8 9 9 9 9 9 10 10 11 11 12 12 12 11 11 11 11 11 11 11 10 10 9
1 1 1 2 3 4 5 6 6 7 7 8 8 8 8 8 8 7 6 5 4 4 4 4 4 4 4 3 3 3 3 3 3 3 3 3 4 4 4 5 5 6 6 6 6 6 6 6 6 6 6 5 6 7 8 7 6 5 5 5 6 6 6 7 7 7 7 8 8 8 8 8 8 8 9 9 9 9 9 10 10 10 10 10 10 10 11 11 11 11 12 12 12 12 12 11 11 11 11 11 10 10 10
1 1 1 2 2 3 3 4 4 5 6 7 8 8 8 8 8 8 7 6 5 5 4 4 4 4 4 4 3 3 3 3 3 3 3 3 3 4 4 5 5 6 6 6 6 6 6 6 6 6 6 6 7 8 9 8 7 7 6 6 7 7 8 8 8 8 8 9 9 9 9 9 9 9 9 10 10 11 12 12 12 12 12 11 11 11 11 10 10 10 11 11 10 10 10 10 10 10 9 9 9 9 9
1 1 1 2 2 2 2 2 3 4 5 6 7 8 8 8 8 8 8 7 6 6 5 5 4 4 4 4 4 3 3 2 2 2 2 3 3 4 4 5 6 6 7 7 7 7 7 7 7 7 6 6 8 9 10 10 9 9 8 8 8 8 9 9 9 9 9 9 9 9 9 9 9 10 10 11 12 13 13 13 13 13 12 12 11 10 10 9 9 8 8 8 8 7 7 7 7 7 7 7 7 7 7
2 2 1 2 2 2 2 2 2 3 4 5 6 7 7 7 8 8 8 8 7 6 6 5 5 4 4 4 4 4 3 3 3 3 3 4 4 4 5 6 6 7 7 8 8 8 8 8 8 7 7 7 8 10 10 10 10 10 10 10 10 9 9 9 8 8 8 8 8 8 9 9 10 10 11 12 13 13 14 13 13 12 11 10 9 9 8 7 7 7 6 6 6 5 5 5 5 5 5 5 5 5 6
2 2 2 2 2 2 2 2 2 2 3 4 5 6 6 7 8 9 9 8 8 7 6 5 5 4 4 4 4 4 3 3 3 4 4 4 5 5 6 6 7 7 8 8 8 8 8 8 8 8 7 8 9 10 10 10 10 10 10 10 10 9 9 8 8 8 8 8 8 9 10 10 11 11 12 13 13 13 12 11 10 10 9 8 8 7 7 6 6 6 6 6 6 6 5 5 5 5 6 6 6 5 6
2 2 2 3 3 3 2 2 2 2 2 3 4 5 5 6 8 9 9 9 8 7 6 6 5 4 4 4 4 3 3 3 4 4 4 5 6 6 7 7 8 8 8 8 8 8 8 8 8 8 8 8 9 10 10 9 9 9 9 9 8 8 8 8 8 8 8 9 10 10 11 11 11 12 12 12 12 11 10 9 8 8 7 7 7 7 7 7 7 7 7 7 7 7 7 7 7 7 7 7 7 7 7
1 2 3 3 4 4 3 3 2 2 2 2 3 4 4 5 7 8 9 8 8 7 6 6 5 5 4 4 4 3 3 3 3 4 4 5 6 6 7 8 8 8 8 8 8 8 8 8 8 8 8 8 9 9 8 8 8 8 8 8 8 8 8 8 8 9 10 10 11 11 11 11 11 11 10 10 9 9 8 8 7 7 7 7 8 8 8 8 8 8 9 9 9 9 9 9 9 9 9 9 9 9 9
1 1 2 3 4 4 4 4 4 3 2 2 2 3 4 5 6 7 8 8 8 7 6 6 6 5 5 4 4 4 4 4 4 4 5 5 6 6 7 7 8 8 7 7 7 7 7 7 7 7 8 8 8 8 8 7 7 7 7 7 7 8 8 9 10 10 12 12 12 12 11 10 10 9 8 8 8 7 7 7 7 7 7 8 8 8 8 8 8 8 9 9 9 9 9 9 9 9 9 9 9 9 9
1 1 1 2 3 4 4 4 4 4 2 2 2 3 3 4 6 7 7 8 8 7 7 7 6 6 5 5 4 4 4 4 4 5 5 6 6 7 7 7 7 7 7 6 6 6 6 6 6 6 7 7 7 7 7 7 7 7 7 8 8 9 9 10 11 12 13 12 12 11 10 9 8 8 7 7 7 7 7 7 7 7 7 7 7 7 7 7 7 7 7 7 7 7 7 7 8 8 8 8 8 8 9
1 1 1 2 3 3 3 4 4 3 2 2 2 2 3 4 5 6 7 7 7 8 7 7 6 6 5 5 4 4 4 4 4 5 6 6 7 7 7 7 7 6 6 6 6 5 5 5 5 6 6 7 7 8 7 7 7 8 8 8 9 10 11 12 12 13 12 11 10 9 8 7 7 7 6 6 6 6 6 6 6 6 6 6 6 6 6 6 6 6 6 6 6 6 6 6 6 6 6 7 7 7 7
0 1 1 2 2 3 3 4 4 3 2 3 3 3 3 4 5 6 6 7 7 7 7 7 7 6 5 5 4 4 4 4 5 6 7 7 7 7 6 6 6 6 5 5 5 5 5 5 5 5 6 7 8 8 8 8 8 8 9 10 10 11 12 13 13 12 11 10 8 7 7 6 6 6 6 6 6 6 6 6 6 5 5 5 5 5 5 5 5 5 5 5 5 5 5 5 5 5 6 6 6 6 6
-0 1 1 2 2 3 4 4 4 3 3 3 3 4 4 4 4 5 5 6 6 7 7 7 7 6 6 5 4 4 4 4 6 6 7 7 7 6 6 6 5 5 5 5 5 5 5 5 5 6 6 7 8 9 9 9 9 9 10 11 11 12 12 12 12 11 10 8 7 6 6 6 6 6 6 6 5 5 5 5 5 5 5 5 5 5 5 5 5 5 5 5 5 5 6 6 6 6 6 6 6 6 6
0 1 2 3 3 3 4 4 3 3 3 3 3 4 4 4 4 4 5 5 6 6 7 7 7 6 6 5 4 4 4 5 6 7 7 7 7 6 6 5 5 5 5 5 5 5 5 6 6 6 6 7 9 10 10 10 10 10 11 11 12 12 12 12 10 9 8 7 6 6 6 6 5 5 5 5 5 5 5 5 5 5 5 5 5 5 5 5 6 6 6 6 6 6 6 6 6 6 6 6 6 6 6
2 2 3 4 4 4 4 4 4 4 4 3 3 4 5 5 4 4 4 5 6 6 7 7 7 6 6 5 5 5 5 6 6 7 8 7 7 6 5 5 5 5 5 6 6 6 6 6 7 7 7 8 10 12 12 11 11 11 12 12 12 12 11 10 9 8 7 6 6 6 6 5 5 5 5 5 5 4 4 4 5 5 5 5 5 5 5 6 6 6 6 6 6 6 6 7 7 7 7 7 7 7 6
4 5 5 4 4 4 4 4 4 4 4 3 3 3 4 5 5 4 4 4 5 6 6 7 7 6 6 5 5 5 5 6 7 7 7 7 6 6 5 5 5 6 6 6 6 6 7 7 8 8 8 9 11 12 13 12 11 11 12 12 12 11 10 9 8 7 6 6 6 5 5 5 5 5 5 5 5 4 4 5 5 5 6 6 6 6 6 6 6 7 7 7 7 7 7 7 7 7 7 7 7 7 7
4 5 5 4 4 4 4 4 4 5 4 4 4 4 4 5 5 5 4 4 5 5 6 7 7 6 6 5 5 5 5 6 7 7 7 6 6 5 5 5 6 6 7 7 7 8 8 8 8 9 9 10 11 13 14 13 12 11 11 11 11 10 9 8 7 6 6 6 5 5 5 5 5 5 5 5 5 5 5 5 5 6 6 6 7 7 7 7 7 7 8 8 8 8 8 8 8 8 8 8 8 8 8
4 5 5 4 4 4 4 4 4 5 5 4 4 4 4 5 5 5 5 5 5 5 6 6 6 6 5 5 5 5 6 6 7 7 7 6 6 6 6 6 7 7 8 8 9 9 10 10 10 10 10 10 12 13 14 13 12 11 11 11 10 9 8 8 7 6 6 5 5 5 5 4 4 5 5 5 5 6 6 6 6 6 6 7 7 7 7 7 7 7 8 8 8 8 8 8 8 8 8 8 8 8 8
5 5 5 5 4 4 3 4 5 5 6 5 4 4 4 5 5 5 4 5 5 6 6 6 6 6 5 5 5 6 6 7 7 7 6 6 6 6 7 7 8 8 9 10 10 11 11 11 11 11 11 11 12 12 14 13 12 11 10 10 9 9 8 7 6 6 6 5 5 5 5 4 4 4 5 5 6 6 6 6 6 6 6 7 7 7 7 7 7 7 7 7 7 7 8 8 8 8 8 8 8 8 8
6 6 4 5 4 4 4 5 5 5 5 5 5 4 4 5 5 5 5 5 5 6 6 6 6 6 6 5 5 6 7 7 7 6 6 6 7 8 8 9 10 10 10 11 11 11 11 11 11 11 11 11 11 12 13 12 11 10 10 9 9 8 7 7 6 6 6 5 5 5 5 5 5 5 5 5 6 6 6 6 6 6 6 6 6 6 6 6 6 6 7 7 7 7 7 7 7 7 7 7 7 8 8
7 6 4 4 5 5 6 5 5 5 6 6 5 5 5 5 5 5 5 5 5 6 7 6 6 6 5 5 6 6 7 6 6 6 6 7 8 9 10 10 11 11 11 12 12 12 12 12 12 11 11 11 11 11 11 11 10 10 9 9 8 8 7 6 6 6 5 5 5 5 5 5 5 5 5 5 6 6 6 6 6 6 6 6 6 6 6 6 6 6 6 6 6 6 6 6 6 6 6 6 6 7 7
5 4 4 5 6 6 6 5 5 5 6 6 6 5 5 5 5 4 4 4 5 6 7 6 6 6 5 5 6 6 6 6 6 6 7 8 9 10 11 12 12 12 12 13 13 12 12 12 12 11 11 10 10 10 10 10 10 9 8 8 8 8 7 7 6 6 6 5 5 5 4 4 4 5 5 5 5 5 5 5 5 4 4 4 4 4 4 4 5 5 5 5 5 5 5 5 5 6 6 6 6 6 6
3 3 4 6 6 6 5 5 5 6 6 6 6 5 4 5 5 4 4 4 5 6 6 6 6 6 5 6 6 6 6 6 6 7 8 9 10 10 12 13 13 13 13 13 13 12 13 12 12 11 10 10 9 9 9 9 9 9 8 7 7 6 6 6 7 6 6 6 5 4 4 4 4 4 4 4 4 4 4 4 4 3 3 3 3 3 4 4 4 4 4 4 4 4 5 5 5 5 5 5 6 6 6
3 4 5 6 6 6 5 5 6 6 7 6 6 5 5 5 5 5 4 5 6 6 6 6 6 6 5 6 6 6 6 6 7 8 9 9 10 12 13 13 13 13 14 13 13 13 13 12 11 10 10 9 9 8 8 8 9 9 9 8 7 6 5 5 5 5 5 5 5 5 4 4 4 3 3 3 2 2 2 2 2 2 2 2 2 3 3 3 3 3 4 4 4 4 4 4 4 5 5 5 5 6 6
5 5 6 7 7 7 6 6 6 7 7 6 6 6 6 5 5 5 5 6 6 6 6 6 6 6 6 6 6 6 6 7 8 8 9 10 11 12 13 13 13 14 14 13 13 13 13 12 11 10 9 9 8 8 7 7 8 8 8 8 7 6 5 4 3 3 2 2 3 4 4 4 4 3 3 2 2 2 2 2 2 2 2 2 2 2 2 3 3 3 4 4 4 4 4 4 4 5 5 5 5 5 6
7 7 8 8 8 7 6 7 7 7 6 6 6 5 6 5 5 5 6 6 6 7 7 6 6 6 6 6 6 6 7 7 8 9 10 10 11 12 12 12 13 14 14 13 13 13 12 11 10 10 9 8 8 8 8 7 7 7 7 7 7 6 6 5 4 3 2 1 1 1 2 3 3 3 3 3 2 2 2 2 2 2 2 2 2 2 2 3 3 3 4 4 4 4 4 4 4 5 5 5 5 5 6
8 9 9 9 8 8 7 8 7 7 6 6 5 5 5 6 6 6 6 6 7 7 7 6 6 6 6 6 6 7 7 8 9 10 10 11 11 11 11 12 13 13 13 13 13 12 12 11 10 9 8 8 8 8 8 8 7 7 7 6 6 6 5 5 4 4 3 2 1 1 1 1 1 2 2 2 2 2 2 2 2 2 2 2 2 3 3 3 3 3 4 4 4 4 4 5 5 5 5 5 5 6 6
8 9 10 9 9 8 9 8 7 7 6 6 6 6 6 6 6 6 6 6 7 7 7 6 6 6 6 6 7 7 8 9 10 10 10 11 11 11 11 12 12 13 13 12 12 12 12 11 10 10 9 8 8 7 8 7 7 7 7 6 6 5 5 5 4 4 4 3 3 2 2 1 1 1 1 1 2 2 2 2 2 3 3 3 3 3 3 3 3 4 4 4 4 4 4 5 5 5 6 6 6 6 6
8 8 9 9 9 9 10 8 8 7 6 6 6 6 6 6 6 6 6 7 7 7 7 6 6 6 6 7 7 8 8 9 10 10 10 10 10 10 10 10 11 11 11 11 12 12 12 11 10 10 9 8 8 7 7 7 7 7 7 6 6 5 5 5 4 4 4 4 4 4 3 3 2 2 2 2 2 2 2 2 2 3 3 3 4 4 4 4 4 4 4 4 4 4 5 5 5 6 6 6 6 6 6
8 8 9 10 10 10 10 9 8 7 7 7 7 7 7 6 6 6 7 7 7 6 7 7 7 7 7 7 8 9 9 9 9 10 10 9 9 9 9 10 10 10 10 10 10 10 10 10 10 10 9 9 8 7 7 7 6 6 6 6 6 5 5 5 4 4 5 4 4 4 4 3 3 3 2 2 2 2 2 2 3 3 3 4 4 4 4 4 4 5 5 5 5 5 5 5 6 6 6 6 7 7 7
8 8 10 10 10 10 10 8 8 7 8 8 8 7 7 6 7 7 7 7 7 6 6 6 7 7 8 8 8 9 9 9 9 8 8 9 9 8 9 9 9 9 9 9 9 9 9 9 9 8 8 8 8 7 7 7 6 6 6 6 5 5 4 4 4 5 5 5 5 4 4 4 4 3 3 3 3 3 3 3 3 3 3 4 4 4 4 5 5 5 5 6 6 6 6 6 6 6 7 7 7 7 8
8 8 9 10 10 10 9 8 8 9 9 9 8 8 7 7 7 7 7 7 6 6 6 6 6 7 8 9 9 8 9 8 8 8 8 8 8 8 8 8 8 8 8 8 8 8 8 8 8 8 8 7 7 7 7 6 6 6 6 6 5 5 4 4 4 4 5 5 5 4 4 4 4 4 4 4 4 4 4 4 4 4 4 4 4 4 4 5 5 6 6 6 6 7 7 7 7 7 7 7 8 8 8
8 9 10 11 11 11 10 10 10 10 9 9 8 8 8 8 8 8 8 7 6 6 6 6 6 6 7 8 8 8 8 7 7 7 7 7 7 7 7 7 7 7 8 8 8 8 8 8 8 8 7 7 7 6 6 6 6 6 6 6 6 5 5 4 4 4 4 4 4 4 4 4 4 4 4 4 4 4 4 4 4 4 5 5 5 5 5 6 6 6 7 7 7 8 8 8 8 8 8 8 8 8 8
10 11 12 11 11 10 10 10 9 9 8 8 8 9 10 9 9 8 8 7 6 6 6 6 6 7 7 7 8 8 7 7 7 7 6 6 7 7 7 6 6 7 7 8 8 8 8 8 8 8 8 8 8 7 7 7 6 6 6 6 6 6 6 5 5 4 4 4 4 4 4 4 4 5 5 5 5 6 6 6 6 6 6 6 6 6 6 7 7 7 7 8 8 8 9 9 9 9 9 9 9 9 9
11 12 11 10 10 10 10 9 8 7 6 6 7 10 11 10 10 8 7 7 6 6 6 7 8 8 8 8 8 8 8 8 7 6 6 6 7 8 8 7 7 6 7 7 7 7 8 8 8 9 9 9 8 8 8 8 8 8 8 7 7 7 7 6 6 6 6 6 6 6 6 6 6 6 6 6 7 7 7 7 7 7 7 7 7 7 7 8 8 8 8 8 9 9 9 9 9 9 9 9 9 9 9
10 10 10 10 10 10 10 9 8 7 5 4 7 10 12 11 10 8 7 6 6 6 6 8 9 10 9 8 8 8 7 7 6 6 7 8 7 6 7 8 8 7 6 6 7 7 7 8 8 9 9 9 9 9 10 10 9 9 8 8 8 8 8 8 8 7 7 7 7 7 7 7 7 7 7 7 8 8 8 8 8 8 7 7 8 8 8 8 8 9 9 9 9 9 9 9 9 9 9 9 8 8 8
10 10 10 10 11 12 12 11 9 7 3 3 6 10 12 11 9 7 6 6 5 6 6 6 8 9 10 8 7 7 6 6 6 6 6 7 6 6 5 5 6 8 8 7 7 7 7 8 8 9 9 9 9 9 9 9 9 8 8 8 8 8 9 9 9 9 9 9 8 8 8 8 8 8 8 8 8 8 8 8 8 8 8 8 8 8 8 8 9 9 9 9 9 9 9 8 8 8 8 8 8 8 7
10 11 10 11 13 14 14 13 9 4 0 2 6 10 13 11 9 7 6 6 6 6 7 6 5 5 7 7 6 6 6 5 5 6 6 5 5 6 5 5 6 8 8 8 8 7 7 8 8 8 8 8 8 8 8 8 8 8 8 8 9 9 9 10 10 9 9 9 9 9 9 9 9 9 9 8 8 8 8 8 8 8 8 8 8 8 8 9 9 9 9 9 9 9 9 8 9 9 8 8 8 7 7
9 10 11 12 14 16 16 12 6 1 -2 1 6 12 14 11 8 6 5 6 6 6 8 8 6 4 3 4 4 4 5 4 4 5 6 5 4 4 6 7 7 7 6 6 7 8 8 8 7 7 7 8 8 9 9 9 9 9 8 9 9 9 9 9 9 9 9 9 9 9 9 9 9 9 8 9 8 8 8 8 8 8 8 9 9 9 9 9 9 9 9 9 9 9 9 9 9 9 9 8 8 7 7
10 11 12 13 15 16 15 8 1 -3 -2 2 8 13 14 10 8 6 5 6 6 7 8 8 8 7 5 4 3 2 2 3 4 4 5 5 4 4 4 5 5 4 4 5 6 7 8 7 7 8 9 9 10 10 9 9 9 9 8 8 8 8 8 8 8 8 8 8 8 8 8 8 8 8 8 8 8 8 8 8 8 9 9 9 10 10 10 9 9 9 9 9 9 8 8 8 8 8 8 7 7 6 6
11 12 11 12 14 14 11 2 -3 -4 0 6 12 15 14 9 7 6 6 6 7 7 7 7 7 8 7 6 4 3 1 2 3 4 4 4 5 5 4 4 4 5 5 6 7 7 7 7 7 7 9 9 9 9 9 9 9 9 9 9 8 8 8 8 7 7 7 7 7 7 7 7 7 8 8 8 8 8 8 8 9 9 10 10 10 10 10 10 10 10 9 9 9 8 8 8 8 7 7 6 6 5 5
10 12 12 10 9 8 6 4 5 6 9 13 15 15 12 8 6 6 6 6 6 7 7 6 6 6 6 5 4 3 2 2 2 3 3 3 4 4 5 5 5 5 6 6 6 6 6 6 6 6 8 7 8 8 9 9 9 9 9 9 9 8 8 8 8 8 7 7 7 7 8 7 8 8 8 8 9 9 10 10 10 10 10 11 11 11 11 11 10 10 10 9 9 8 8 7 7 7 6 6 5 5 5
14 17 16 9 2 -1 2 8 13 16 17 17 16 13 9 7 5 5 6 6 7 7 7 6 5 4 5 4 4 3 2 2 2 3 3 3 3 3 4 4 5 5 6 6 6 6 6 6 6 6 6 7 8 8 8 8 9 9 9 9 9 9 8 8 8 8 8 8 8 8 8 8 8 9 9 9 10 10 11 12 12 12 12 12 12 12 12 11 10 10 9 9 8 8 7 7 7 6 6 6 6 6 6
19 22 18 6 -3 -6 -2 8 15 19 20 17 14 10 7 6 5 6 6 7 7 7 6 6 5 4 3 3 3 2 3 3 2 2 2 2 3 3 3 3 3 4 4 5 5 5 5 6 7 7 5 6 8 10 9 9 9 9 9 9 9 9 8 9 9 9 9 9 9 9 9 9 9 9 9 10 10 10 11 12 12 12 12 12 12 12 11 10 9 9 8 8 8 7 7 7 8 8 8 7 7 7 7
20 22 16 4 -4 -6 -1 8 15 19 18 15 11 8 6 5 6 6 7 7 6 6 5 5 5 4 2 2 2 2 3 3 3 2 2 3 3 3 3 3 4 4 4 4 4 5 5 5 6 7 6 7 7 8 9 9 9 9 9 9 8 8 9 9 9 9 9 9 9 9 9 10 10 10 10 10 10 10 10 10 10 10 10 10 9 9 8 8 8 7 7 7 8 8 8 9 9 10 10 9 9 9 9
19 20 13 1 -5 -5 0 9 15 18 16 12 9 7 6 5 6 6 6 6 6 6 5 4 4 3 2 2 2 2 2 2 3 3 3 3 3 3 3 3 4 4 4 4 4 5 5 6 6 6 7 8 7 7 8 8 9 8 8 8 8 8 8 9 9 9 9 10 10 10 10 10 10 10 10 10 10 10 10 10 9 8 8 7 7 6 6 6 6 6 6 6 7 7 8 8 9 9 9 9 9 10 10
18 16 8 -1 -4 -3 4 12 16 17 14 10 8 6 5 5 5 6 6 6 6 6 5 4 3 3 3 2 2 2 2 2 2 3 3 3 3 3 3 3 4 4 4 4 5 5 5 6 6 6 7 8 8 9 9 8 8 8 8 8 8 8 9 9 9 9 10 10 10 10 10 11 11 11 10 10 10 10 10 9 8 7 7 6 6 5 5 5 5 5 5 5 5 5 5 5 5 6 6 7 7 8 9
Height
3150 3149 3149 3149 3149 3149 3149 3149 3149 3149 3149 3149 3149 3149 3149 3149 3149 3150 3150 3150 3150 3150 3150 3150 3151 3151 3151 3151 3151 3151 3151 3152 3152 3152 3152 3152 3151 3151 3151 3151 3151 3151 3151 3151 3151 3151 3151 3151 3151 3151 3151 3150 3150 3150 3150 3150 3149 3149 3149 3150 3150 3149 3148 3148 3148 3148 3148 3148 3148 3148 3148 3148 3148 3148 3147 3147 3147 3147 3147 3147 3146 3146 3146 3146 3146 3145 3145 3145 3145 3145 3145 3144 3144 3144 3144 3144 3144 3144 3145 3145 3145 3145 3145
3150 3150 3150 3149 3149 3149 3149 3149 3149 3149 3149 3150 3149 3149 3150 3150 3150 3150 3150 3150 3150 3150 3150 3150 3151 3151 3151 3151 3151 3152 3151 3151 3151 3151 3152 3151 3151 3151 3151 3151 3151 3151 3151 3151 3151 3151 3151 3151 3150 3150 3150 3150 3150 3150 3149 3149 3149 3148 3149 3149 3149 3148 3148 3148 3148 3148 3148 3148 3148 3147 3147 3147 3147 3147 3147 3147 3147 3147 3147 3146 3146 3146 3145 3145 3145 3145 3145 3145 3144 3144 3144 3144 3144 3143 3143 3143 3144 3144 3144 3144 3144 3144 3144
3150 3150 3150 3150 3150 3150 3150 3150 3150 3150 3150 3150 3150 3150 3150 3150 3150 3150 3150 3150 3150 3150 3151 3150 3150 3151 3151 3151 3151 3151 3151 3151 3151 3151 3151 3151 3151 3151 3151 3151 3151 3151 3151 3151 3151 3151 3150 3150 3150 3150 3150 3149 3149 3149 3149 3149 3148 3148 3149 3149 3149 3148 3147 3147 3147 3147 3147 3147 3147 3147 3147 3147 3147 3147 3147 3147 3147 3146 3146 3146 3146 3146 3145 3145 3145 3144 3144 3144 3144 3143 3143 3143 3143 3143 3143 3143 3143 3143 3143 3143 3143 3143 3143
3151 3150 3150 3150 3150 3150 3150 3150 3150 3150 3150 3150 3150 3150 3150 3150 3150 3150 3150 3150 3150 3150 3151 3151 3151 3151 3151 3151 3151 3151 3151 3151 3151 3151 3151 3151 3151 3151 3151 3151 3150 3151 3151 3151 3150 3150 3150 3150 3150 3150 3149 3149 3149 3149 3149 3148 3148 3148 3148 3149 3148 3147 3147 3147 3147 3147 3147 3147 3147 3147 3146 3146 3146 3146 3146 3146 3146 3146 3145 3145 3145 3145 3144 3144 3144 3144 3144 3144 3143 3143 3143 3143 3142 3142 3142 3142 3142 3142 3142 3142 3142 3142 3142
3151 3151 3151 3151 3150 3150 3150 3150 3150 3150 3150 3150 3150 3150 3151 3150 3151 3151 3151 3151 3150 3150 3151 3150 3150 3151 3151 3151 3151 3151 3151 3151 3151 3151 3151 3151 3151 3151 3150 3150 3150 3150 3150 3150 3150 3150 3150 3149 3149 3149 3149 3149 3148 3148 3148 3148 3147 3147 3148 3148 3148 3147 3147 3147 3147 3147 3147 3146 3146 3146 3146 3146 3146 3146 3146 3145 3145 3145 3145 3145 3145 3144 3144 3144 3144 3143 3143 3143 3143 3143 3143 3142 3142 3142 3142 3142 3142 3142 3141 3141 3142 3142 3142
3151 3151 3151 3151 3151 3151 3151 3151 3151 3151 3151 3151 3151 3151 3151 3151 3151 3151 3151 3151 3151 3151 3150 3150 3150 3150 3150 3150 3150 3151 3151 3151 3151 3151 3151 3151 3150 3150 3150 3150 3150 3150 3150 3149 3149 3149 3149 3149 3149 3149 3148 3148 3148 3148 3147 3147 3147 3147 3148 3147 3147 3147 3147 3146 3146 3146 3146 3146 3146 3145 3145 3145 3145 3145 3145 3145 3144 3144 3144 3144 3144 3144 3143 3143 3143 3143 3142 3142 3142 3143 3142 3142 3141 3141 3141 3141 3141 3141 3141 3141 3141 3141 3140
3152 3151 3151 3151 3151 3151 3151 3151 3151 3151 3151 3151 3151 3151 3151 3151 3151 3151 3151 3151 3151 3151 3150 3150 3150 3150 3150 3150 3150 3150 3150 3150 3150 3150 3150 3150 3150 3150 3150 3150 3150 3149 3149 3149 3149 3149 3149 3148 3148 3148 3148 3148 3147 3147 3147 3147 3147 3147 3147 3147 3146 3146 3146 3146 3146 3145 3145 3145 3145 3145 3144 3144 3144 3144 3144 3144 3143 3143 3143 3143 3143 3143 3142 3142 3142 3142 3142 3141 3141 3141 3141 3141 3140 3140 3140 3140 3140 3140 3140 3140 3140 3140 3139
3152 3152 3152 3151 3151 3151 3151 3151 3151 3151 3151 3151 3151 3151 3151 3151 3151 3151 3151 3151 3151 3151 3150 3150 3150 3150 3150 3150 3150 3150 3150 3150 3150 3150 3150 3150 3150 3150 3149 3149 3149 3149 3149 3148 3148 3148 3148 3148 3148 3147 3147 3147 3147 3147 3146 3146 3146 3147 3146 3146 3146 3146 3146 3145 3145 3145 3144 3144 3144 3144 3144 3143 3143 3143 3143 3143 3143 3142 3142 3142 3142 3142 3142 3141 3141 3141 3141 3140 3140 3140 3140 3140 3139 3139 3139 3139 3139 3139 3139 3139 3139 3139 3139
3152 3152 3152 3152 3151 3151 3151 3151 3151 3151 3151 3151 3151 3151 3151 3151 3151 3151 3151 3151 3151 3150 3150 3150 3150 3150 3149 3149 3149 3150 3150 3150 3150 3149 3149 3149 3149 3149 3149 3149 3148 3148 3148 3148 3148 3147 3147 3147 3147 3147 3147 3147 3146 3146 3146 3146 3146 3146 3145 3145 3145 3145 3145 3145 3144 3144 3144 3143 3143 3143 3143 3143 3142 3142 3142 3142 3142 3142 3141 3141 3141 3141 3140 3140 3140 3140 3139 3139 3139 3139 3139 3138 3138 3138 3138 3138 3138 3138 3138 3138 3138 3138 3138
3152 3152 3152 3152 3151 3151 3151 3151 3151 3151 3151 3151 3151 3151 3151 3151 3151 3151 3151 3151 3150 3150 3150 3150 3149 3149 3149 3149 3149 3149 3149 3149 3149 3149 3149 3149 3148 3148 3148 3148 3148 3148 3147 3147 3147 3147 3147 3147 3146 3146 3146 3146 3146 3145 3145 3145 3145 3145 3145 3145 3145 3144 3144 3144 3144 3143 3143 3143 3142 3142 3142 3142 3142 3141 3141 3141 3141 3141 3140 3140 3140 3140 3139 3139 3139 3138 3138 3138 3138 3138 3137 3137 3137 3137 3137 3137 3137 3137 3137 3137 3137 3137 3137
3152 3152 3152 3152 3151 3151 3151 3151 3151 3151 3151 3151 3151 3151 3151 3151 3151 3150 3150 3150 3150 3150 3150 3149 3149 3149 3149 3149 3149 3149 3148 3148 3148 3148 3148 3148 3148 3148 3148 3147 3147 3147 3147 3147 3147 3147 3146 3146 3146 3146 3145 3145 3145 3145 3145 3145 3144 3144 3144 3144 3144 3144 3143 3143 3143 3142 3142 3142 3142 3141 3141 3141 3141 3140 3140 3140 3140 3140 3139 3139 3139 3138 3138 3138 3137 3137 3137 3137 3137 3137 3137 3137 3136 3136 3136 3137 3137 3137 3137 3137 3136 3136 3136
3152 3152 3152 3152 3151 3151 3151 3151 3151 3151 3151 3151 3151 3151 3151 3151 3150 3150 3150 3150 3150 3150 3149 3149 3149 3149 3148 3148 3148 3148 3148 3148 3148 3148 3148 3148 3147 3147 3147 3147 3147 3147 3146 3146 3146 3146 3146 3145 3145 3145 3144 3144 3144 3144 3144 3144 3144 3143 3143 3143 3143 3143 3142 3142 3142 3142 3141 3141 3141 3140 3140 3140 3140 3139 3139 3139 3139 3138 3138 3138 3138 3137 3137 3137 3136 3136 3136 3136 3136 3136 3136 3135 3135 3135 3135 3136 3136 3135 3135 3135 3135 3135 3135
3152 3152 3152 3152 3151 3151 3151 3151 3151 3151 3151 3151 3150 3150 3150 3150 3150 3150 3150 3150 3149 3149 3149 3149 3149 3148 3148 3148 3148 3148 3148 3147 3147 3147 3147 3147 3147 3147 3147 3146 3146 3146 3146 3145 3145 3145 3145 3144 3144 3144 3144 3143 3143 3143 3143 3143 3143 3142 3142 3142 3142 3142 3142 3141 3141 3141 3140 3140 3140 3139 3139 3139 3139 3138 3138 3138 3138 3137 3137 3137 3137 3137 3136 3136 3135 3135 3135 3135 3135 3135 3134 3134 3134 3134 3134 3134 3134 3134 3134 3134 3134 3134 3134
3152 3152 3152 3151 3151 3151 3151 3151 3151 3151 3151 3150 3150 3150 3150 3150 3150 3150 3149 3149 3149 3149 3149 3149 3148 3148 3148 3148 3147 3147 3147 3147 3147 3147 3147 3147 3146 3146 3146 3146 3145 3145 3145 3144 3144 3144 3144 3143 3143 3143 3143 3142 3142 3142 3143 3142 3142 3142 3142 3142 3141 3141 3141 3140 3140 3140 3139 3139 3139 3138 3138 3138 3138 3137 3137 3137 3137 3137 3137 3136 3136 3135 3135 3135 3134 3134 3134 3134 3133 3133 3133 3133 3133 3133 3133 3133 3133 3133 3133 3133 3133 3133 3133
3152 3152 3152 3151 3151 3151 3151 3151 3151 3150 3150 3150 3150 3150 3150 3150 3150 3149 3149 3149 3149 3149 3148 3148 3148 3148 3148 3147 3147 3147 3147 3147 3146 3146 3146 3146 3146 3145 3145 3145 3144 3144 3144 3143 3143 3143 3143 3142 3142 3142 3142 3141 3141 3142 3142 3142 3141 3141 3141 3140 3140 3140 3140 3139 3139 3139 3138 3138 3137 3137 3137 3137 3137 3136 3136 3136 3136 3136 3136 3135 3135 3134 3134 3134 3133 3133 3133 3132 3132 3132 3132 3132 3132 3132 3132 3132 3132 3132 3132 3132 3132 3132 3132
3152 3152 3151 3151 3151 3151 3151 3151 3150 3150 3150 3150 3150 3150 3149 3149 3149 3149 3149 3148 3148 3148 3148 3148 3148 3148 3147 3147 3147 3147 3146 3146 3146 3145 3145 3145 3145 3144 3144 3144 3143 3143 3143 3142 3142 3142 3142 3142 3141 3141 3141 3140 3140 3141 3141 3141 3140 3140 3139 3139 3139 3139 3138 3138 3138 3137 3137 3137 3136 3136 3136 3136 3136 3135 3135 3135 3135 3135 3134 3134 3134 3133 3133 3133 3132 3132 3132 3132 3132 3132 3132 3132 3132 3132 3131 3131 3131 3131 3131 3131 3131 3131 3131
3152 3151 3151 3151 3151 3151 3151 3150 3150 3150 3150 3149 3149 3149 3149 3149 3149 3148 3148 3148 3148 3148 3147 3147 3147 3147 3147 3147 3147 3146 3146 3146 3145 3145 3145 3144 3144 3144 3143 3143 3143 3142 3142 3142 3141 3141 3141 3140 3140 3140 3139 3139 3139 3140 3140 3140 3139 3139 3138 3138 3138 3137 3137 3137 3137 3136 3136 3135 3135 3135 3135 3135 3134 3134 3134 3134 3134 3134 3133 3133 3133 3132 3132 3132 3132 3131 3131 3131 3131 3131 3131 3131 3131 3131 3130 3130 3130 3130 3130 3130 3130 3130 3129
3151 3151 3151 3151 3151 3151 3150 3150 3150 3150 3149 3149 3149 3149 3148 3148 3148 3148 3148 3148 3147 3147 3147 3147 3147 3147 3146 3146 3146 3146 3146 3146 3145 3145 3144 3144 3143 3143 3143 3142 3142 3142 3141 3141 3140 3140 3140 3139 3139 3139 3138 3138 3138 3139 3139 3139 3138 3137 3137 3137 3137 3136 3136 3136 3135 3135 3134 3134 3134 3134 3133 3133 3133 3133 3132 3132 3132 3132 3132 3132 3132 3132 3131 3131 3131 3131 3130 3130 3130 3130 3130 3130 3130 3130 3129 3129 3129 3129 3129 3129 3129 3129 3128
3151 3151 3151 3151 3151 3151 3150 3150 3150 3149 3149 3149 3149 3148 3148 3148 3148 3148 3147 3147 3147 3147 3147 3146 3146 3146 3145 3145 3145 3145 3144 3144 3144 3144 3144 3144 3143 3143 3142 3142 3141 3141 3140 3140 3139 3139 3139 3138 3138 3137 3137 3137 3137 3138 3138 3137 3137 3137 3136 3136 3136 3135 3135 3134 3134 3134 3133 3133 3133 3132 3132 3132 3132 3132 3132 3132 3132 3131 3131 3131 3131 3131 3130 3130 3130 3130 3130 3130 3129 3129 3129 3129 3129 3129 3128 3128 3128 3128 3128 3128 3128 3128 3127
3151 3151 3151 3151 3151 3150 3150 3150 3150 3149 3149 3149 3149 3148 3148 3147 3147 3147 3147 3147 3146 3146 3146 3146 3145 3145 3145 3144 3144 3144 3143 3143 3143 3143 3142 3142 3142 3142 3142 3141 3140 3140 3139 3139 3138 3138 3138 3137 3137 3136 3136 3136 3136 3137 3137 3136 3135 3135 3135 3135 3134 3134 3134 3133 3133 3132 3132 3132 3131 3131 3131 3131 3130 3130 3130 3131 3131 3130 3130 3130 3130 3130 3129 3129 3129 3129 3129 3129 3129 3129 3129 3128 3128 3128 3127 3127 3127 3127 3127 3127 3127 3127 3127
3150 3150 3150 3150 3150 3150 3150 3150 3149 3149 3149 3149 3148 3148 3147 3147 3147 3147 3146 3146 3146 3145 3145 3145 3144 3144 3144 3144 3143 3143 3142 3142 3142 3142 3141 3141 3141 3141 3141 3140 3140 3139 3138 3138 3137 3137 3137 3136 3136 3135 3135 3135 3135 3136 3135 3135 3134 3134 3134 3133 3133 3133 3132 3132 3132 3131 3131 3131 3130 3130 3129 3129 3129 3129 3129 3130 3130 3129 3129 3129 3129 3129 3128 3128 3128 3128 3128 3128 3128 3128 3128 3127 3127 3127 3127 3126 3126 3126 3126 3126 3126 3126 3126
3150 3150 3150 3150 3150 3150 3150 3149 3149 3149 3148 3148 3148 3148 3147 3147 3146 3146 3146 3146 3145 3145 3144 3144 3144 3143 3143 3143 3142 3142 3142 3141 3141 3141 3140 3140 3140 3139 3139 3139 3138 3138 3137 3137 3136 3136 3135 3135 3135 3134 3133 3134 3134 3135 3134 3133 3133 3132 3132 3132 3132 3132 3131 3131 3130 3130 3130 3129 3129 3129 3128 3128 3128 3128 3128 3128 3128 3128 3128 3128 3128 3128 3128 3127 3127 3127 3127 3127 3127 3127 3127 3127 3126 3126 3126 3125 3125 3125 3125 3125 3125 3124 3124
3149 3149 3149 3149 3149 3149 3149 3149 3149 3148 3148 3148 3148 3148 3147 3147 3146 3146 3146 3145 3145 3145 3144 3143 3143 3143 3142 3142 3142 3141 3141 3141 3140 3140 3139 3139 3138 3138 3138 3138 3137 3137 3136 3136 3135 3135 3134 3134 3133 3133 3132 3133 3133 3133 3132 3132 3131 3131 3131 3131 3131 3130 3130 3130 3129 3129 3129 3128 3128 3128 3127 3127 3127 3127 3127 3127 3127 3127 3127 3127 3127 3127 3127 3127 3126 3126 3126 3126 3126 3126 3126 3126 3126 3125 3125 3124 3124 3124 3124 3124 3124 3123 3123
3149 3148 3148 3148 3148 3149 3149 3149 3149 3148 3148 3147 3147 3147 3147 3147 3147 3146 3145 3145 3144 3144 3143 3143 3142 3142 3142 3142 3141 3141 3140 3140 3140 3139 3139 3138 3137 3137 3137 3136 3136 3136 3135 3134 3134 3133 3133 3132 3132 3132 3131 3132 3132 3132 3132 3131 3130 3130 3130 3130 3129 3129 3129 3128 3128 3128 3128 3127 3127 3127 3127 3126 3126 3126 3126 3127 3127 3127 3126 3126 3126 3126 3126 3126 3125 3125 3125 3125 3125 3125 3125 3125 3125 3124 3124 3124 3123 3123 3123 3123 3123 3122 3122
3148 3148 3148 3148 3148 3148 3148 3148 3148 3148 3147 3147 3147 3147 3147 3146 3146 3145 3145 3144 3144 3143 3143 3142 3142 3141 3141 3141 3140 3140 3140 3139 3139 3138 3138 3137 3137 3136 3135 3135 3135 3134 3134 3133 3133 3132 3132 3131 3131 3130 3130 3131 3131 3131 3130 3129 3129 3128 3128 3128 3128 3128 3127 3127 3127 3127 3127 3127 3126 3126 3126 3126 3125 3125 3125 3126 3126 3125 3125 3125 3125 3125 3124 3124 3124 3124 3124 3124 3124 3124 3124 3124 3123 3123 3123 3122 3122 3122 3122 3122 3122 3121 3121
3147 3147 3147 3147 3147 3147 3147 3147 3147 3147 3147 3146 3146 3146 3145 3145 3145 3144 3144 3143 3143 3142 3142 3142 3141 3141 3140 3140 3140 3139 3139 3139 3138 3137 3137 3136 3136 3135 3134 3134 3133 3133 3133 3132 3132 3131 3131 3130 3130 3129 3129 3129 3130 3130 3129 3128 3127 3127 3127 3127 3127 3127 3127 3126 3126 3126 3126 3126 3125 3125 3125 3125 3124 3124 3124 3124 3124 3124 3124 3124 3123 3123 3123 3123 3123 3123 3123 3122 3122 3122 3122 3122 3122 3122 3122 3121 3121 3121 3121 3120 3120 3120 3120
3147 3147 3147 3147 3147 3146 3146 3146 3146 3146 3146 3145 3145 3145 3144 3144 3144 3143 3143 3143 3142 3142 3141 3141 3140 3140 3140 3139 3139 3138 3138 3138 3137 3137 3136 3136 3135 3134 3133 3133 3132 3132 3132 3131 3131 3130 3129 3129 3128 3128 3127 3128 3129 3129 3128 3127 3126 3126 3126 3126 3126 3125 3125 3125 3125 3125 3125 3124 3124 3124 3124 3123 3123 3123 3123 3123 3123 3123 3123 3122 3122 3122 3122 3122 3122 3122 3122 3122 3121 3121 3121 3121 3121 3121 3120 3120 3120 3120 3119 3119 3119 3119 3118
3145 3146 3146 3146 3146 3146 3146 3145 3145 3145 3144 3144 3144 3144 3143 3143 3143 3143 3142 3142 3142 3141 3141 3140 3140 3139 3139 3138 3138 3137 3137 3137 3137 3136 3135 3135 3134 3133 3133 3132 3132 3131 3131 3130 3129 3129 3128 3128 3127 3127 3126 3127 3127 3128 3127 3126 3125 3125 3125 3125 3124 3124 3124 3124 3124 3124 3124 3123 3123 3123 3123 3122 3122 3122 3122 3122 3122 3122 3122 3122 3121 3121 3121 3121 3121 3121 3120 3120 3120 3120 3120 3119 3119 3119 3119 3118 3118 3118 3118 3118 3117 3117 3117
3144 3144 3145 3145 3145 3145 3145 3144 3144 3144 3143 3143 3143 3142 3142 3142 3142 3142 3142 3141 3141 3140 3140 3139 3139 3138 3138 3137 3137 3137 3136 3136 3135 3135 3134 3134 3133 3132 3132 3131 3131 3130 3129 3129 3128 3128 3127 3127 3126 3125 3125 3125 3126 3126 3126 3125 3124 3123 3123 3123 3123 3123 3123 3123 3123 3123 3122 3122 3122 3122 3122 3121 3121 3121 3121 3121 3121 3121 3121 3120 3120 3120 3119 3119 3119 3119 3119 3119 3118 3118 3118 3118 3117 3117 3117 3117 3117 3117 3116 3116 3116 3116 3115
3143 3143 3143 3143 3144 3144 3144 3143 3143 3143 3142 3142 3142 3142 3142 3142 3141 3141 3141 3140 3140 3139 3139 3139 3138 3138 3137 3137 3136 3136 3135 3135 3134 3134 3133 3133 3132 3132 3131 3130 3130 3129 3128 3128 3127 3127 3126 3125 3125 3124 3124 3124 3124 3125 3124 3123 3123 3122 3122 3122 3122 3122 3122 3122 3122 3122 3122 3121 3121 3121 3121 3120 3120 3120 3120 3119 3119 3119 3119 3119 3119 3118 3118 3118 3117 3117 3117 3117 3117 3117 3116 3116 3116 3116 3115 3115 3115 3115 3115 3114 3114 3114 3114
3142 3142 3142 3142 3142 3143 3142 3142 3142 3142 3142 3141 3141 3141 3141 3141 3140 3140 3140 3139 3139 3138 3138 3138 3137 3137 3136 3136 3135 3135 3134 3134 3133 3133 3132 3132 3131 3130 3130 3129 3128 3128 3127 3127 3126 3125 3125 3124 3123 3123 3122 3122 3123 3123 3123 3122 3122 3121 3121 3121 3121 3121 3121 3121 3121 3120 3120 3120 3120 3120 3119 3119 3119 3119 3118 3118 3118 3118 3118 3117 3117 3117 3117 3116 3116 3116 3116 3115 3115 3115 3115 3114 3114 3114 3113 3113 3113 3113 3112 3112 3112 3112 3112
3141 3141 3141 3142 3142 3142 3142 3141 3141 3141 3141 3140 3140 3140 3140 3139 3139 3139 3139 3138 3138 3137 3137 3137 3136 3136 3135 3135 3134 3134 3133 3133 3132 3132 3131 3131 3130 3129 3129 3128 3127 3127 3126 3126 3125 3124 3123 3123 3122 3122 3121 3121 3121 3122 3122 3122 3121 3120 3120 3120 3120 3120 3120 3119 3119 3119 3119 3119 3119 3119 3118 3118 3118 3117 3117 3117 3117 3117 3116 3116 3116 3115 3115 3115 3114 3114 3114 3113 3113 3113 3113 3112 3112 3112 3112 3111 3111 3111 3111 3110 3110 3110 3110
3140 3140 3140 3141 3141 3140 3140 3140 3140 3140 3139 3139 3139 3139 3138 3138 3138 3138 3137 3137 3137 3137 3136 3136 3135 3135 3134 3134 3133 3133 3132 3132 3131 3131 3130 3130 3129 3128 3127 3127 3126 3126 3125 3124 3124 3123 3122 3122 3121 3121 3120 3120 3120 3120 3121 3121 3120 3119 3119 3119 3119 3119 3119 3118 3118 3118 3118 3118 3118 3117 3117 3117 3117 3117 3116 3116 3116 3115 3115 3115 3114 3114 3113 3113 3113 3112 3112 3112 3112 3111 3111 3111 3111 3110 3110 3109 3109 3109 3108 3108 3108 3108 3108
3139 3139 3139 3139 3139 3139 3139 3139 3139 3138 3138 3138 3138 3137 3137 3137 3137 3137 3137 3136 3136 3135 3135 3134 3134 3134 3133 3132 3132 3131 3131 3130 3130 3129 3129 3128 3128 3127 3127 3126 3125 3124 3124 3123 3123 3122 3122 3121 3120 3119 3119 3119 3118 3118 3119 3120 3119 3119 3118 3118 3118 3118 3117 3117 3117 3117 3117 3117 3117 3116 3116 3116 3116 3115 3115 3115 3114 3114 3114 3113 3113 3112 3112 3112 3112 3111 3111 3111 3110 3110 3109 3109 3109 3108 3108 3108 3107 3107 3107 3106 3106 3106 3106
3138 3138 3138 3138 3138 3138 3138 3137 3137 3137 3137 3137 3137 3136 3136 3136 3136 3136 3135 3135 3135 3134 3133 3133 3133 3132 3132 3131 3131 3130 3130 3129 3129 3128 3128 3127 3127 3126 3126 3125 3124 3123 3122 3122 3122 3121 3120 3120 3119 3118 3118 3118 3117 3117 3117 3118 3118 3118 3117 3117 3117 3117 3116 3116 3116 3116 3116 3116 3115 3115 3115 3115 3114 3114 3114 3113 3113 3113 3112 3112 3112 3111 3111 3110 3110 3110 3109 3109 3109 3108 3108 3107 3107 3107 3107 3106 3106 3105 3105 3104 3104 3104 3104
3137 3137 3137 3137 3137 3137 3136 3136 3136 3136 3136 3136 3135 3135 3135 3135 3134 3134 3134 3134 3133 3133 3132 3132 3132 3131 3131 3130 3130 3129 3128 3128 3127 3127 3127 3126 3126 3125 3124 3124 3123 3122 3121 3121 3120 3120 3119 3119 3118 3117 3117 3117 3117 3116 3116 3117 3117 3117 3117 3116 3116 3115 3115 3115 3115 3115 3114 3114 3114 3114 3114 3113 3113 3113 3112 3112 3112 3112 3111 3111 3110 3110 3109 3109 3108 3108 3108 3107 3107 3107 3106 3106 3106 3105 3105 3104 3104 3103 3103 3102 3102 3102 3102
3136 3136 3136 3136 3136 3135 3135 3135 3135 3134 3134 3134 3134 3134 3134 3133 3133 3133 3133 3132 3132 3132 3132 3131 3131 3130 3130 3129 3129 3128 3127 3127 3126 3126 3125 3125 3124 3124 3123 3123 3122 3121 3120 3120 3119 3119 3118 3118 3117 3117 3116 3116 3116 3115 3115 3115 3115 3116 3116 3116 3115 3115 3114 3114 3113 3113 3113 3113 3113 3112 3112 3112 3112 3112 3111 3111 3110 3110 3110 3109 3109 3108 3108 3107 3107 3107 3106 3106 3105 3105 3105 3104 3104 3103 3103 3102 3102 3101 3101 3101 3100 3100 3099
3134 3134 3134 3134 3134 3134 3134 3133 3133 3133 3133 3133 3133 3132 3132 3132 3132 3132 3132 3131 3131 3131 3131 3130 3130 3129 3129 3128 3127 3127 3126 3126 3125 3125 3124 3124 3123 3122 3122 3122 3121 3120 3119 3118 3118 3117 3117 3117 3116 3116 3115 3115 3114 3114 3114 3114 3114 3114 3114 3114 3114 3114 3113 3113 3112 3112 3112 3112 3111 3111 3110 3110 3110 3110 3109 3109 3109 3108 3108 3107 3107 3107 3106 3106 3105 3105 3104 3104 3103 3103 3102 3102 3102 3101 3101 3100 3099 3099 3099 3098 3098 3097 3097
3133 3133 3133 3133 3132 3132 3132 3132 3132 3132 3132 3132 3131 3131 3131 3131 3131 3130 3130 3130 3129 3129 3129 3129 3128 3128 3127 3127 3126 3126 3125 3124 3124 3123 3123 3122 3122 3121 3121 3120 3120 3119 3118 3117 3117 3116 3116 3116 3115 3115 3114 3114 3113 3113 3113 3113 3113 3113 3113 3113 3112 3112 3112 3112 3111 3111 3111 3110 3110 3109 3109 3108 3108 3108 3107 3107 3107 3107 3106 3106 3105 3105 3104 3104 3103 3103 3102 3102 3102 3101 3101 3100 3099 3099 3098 3098 3097 3097 3096 3096 3096 3095 3095
3132 3132 3132 3132 3131 3131 3131 3131 3130 3130 3130 3130 3130 3130 3130 3129 3129 3129 3128 3128 3128 3128 3127 3127 3127 3127 3126 3125 3125 3124 3124 3123 3123 3122 3122 3121 3121 3120 3119 3119 3118 3118 3117 3117 3116 3115 3115 3114 3114 3114 3113 3112 3112 3112 3112 3112 3112 3112 3112 3111 3111 3111 3110 3110 3110 3109 3109 3109 3108 3108 3107 3107 3106 3106 3106 3105 3105 3105 3104 3103 3103 3102 3102 3102 3101 3101 3100 3100 3099 3099 3098 3098 3097 3097 3096 3095 3095 3094 3094 3094 3093 3093 3092
3130 3130 3130 3130 3130 3129 3129 3129 3129 3129 3128 3128 3128 3128 3128 3128 3128 3127 3127 3127 3127 3126 3126 3126 3125 3125 3124 3124 3123 3123 3122 3122 3121 3121 3120 3120 3119 3119 3118 3118 3117 3117 3116 3115 3115 3114 3114 3113 3113 3113 3112 3112 3111 3111 3111 3111 3111 3110 3110 3110 3109 3109 3108 3108 3108 3107 3107 3107 3107 3107 3106 3105 3105 3104 3104 3103 3103 3102 3102 3102 3101 3100 3100 3099 3099 3098 3098 3097 3097 3097 3096 3095 3095 3094 3094 3093 3092 3092 3092 3091 3091 3090 3090
3129 3129 3129 3128 3128 3127 3127 3127 3127 3127 3127 3127 3127 3127 3127 3126 3126 3126 3126 3126 3125 3125 3125 3124 3124 3124 3123 3123 3122 3122 3121 3121 3120 3119 3119 3118 3118 3117 3117 3117 3116 3116 3115 3114 3114 3113 3113 3112 3112 3112 3111 3111 3111 3110 3110 3109 3109 3109 3109 3108 3108 3107 3107 3107 3106 3106 3105 3105 3105 3104 3104 3103 3103 3102 3102 3102 3101 3101 3100 3099 3099 3098 3097 3097 3096 3096 3095 3095 3094 3094 3093 3093 3092 3092 3091 3091 3090 3090 3089 3089 3088 3087 3087
3127 3127 3127 3127 3126 3126 3126 3126 3125 3125 3125 3125 3125 3125 3125 3125 3125 3125 3124 3124 3124 3124 3123 3123 3122 3122 3122 3122 3121 3120 3120 3119 3119 3118 3117 3117 3117 3116 3116 3115 3115 3114 3114 3113 3112 3112 3112 3111 3111 3110 3110 3110 3109 3109 3109 3108 3108 3107 3107 3107 3107 3106 3105 3105 3104 3104 3103 3103 3102 3102 3102 3101 3101 3100 3100 3099 3099 3098 3098 3097 3097 3096 3095 3095 3094 3093 3093 3092 3092 3091 3091 3090 3090 3089 3089 3088 3087 3087 3087 3086 3086 3085 3084
3126 3126 3125 3125 3125 3124 3124 3124 3124 3123 3123 3123 3123 3123 3123 3123 3123 3123 3123 3123 3123 3122 3122 3122 3121 3121 3121 3120 3120 3119 3119 3118 3117 3117 3116 3116 3115 3115 3114 3114 3113 3113 3112 3112 3112 3111 3111 3110 3109 3109 3109 3108 3108 3108 3107 3107 3107 3106 3106 3105 3105 3104 3104 3103 3103 3102 3102 3101 3101 3100 3100 3099 3098 3098 3097 3097 3097 3096 3096 3095 3095 3094 3093 3093 3092 3091 3091 3090 3089 3089 3088 3087 3087 3086 3086 3085 3085 3084 3084 3083 3083 3082 3082
3124 3124 3124 3123 3123 3122 3122 3122 3122 3122 3122 3122 3122 3122 3122 3122 3122 3122 3122 3122 3122 3121 3121 3121 3120 3120 3119 3119 3119 3118 3117 3117 3116 3116 3115 3114 3114 3113 3113 3112 3112 3112 3111 3111 3110 3110 3109 3109 3108 3108 3107 3107 3107 3107 3106 3106 3105 3105 3104 3104 3103 3103 3102 3102 3101 3100 3100 3099 3098 3098 3097 3097 3096 3096 3095 3094 3094 3093 3093 3093 3092 3092 3091 3090 3090 3089 3088 3088 3087 3086 3086 3085 3084 3083 3083 3082 3082 3081 3081 3080 3080 3079 3079
3123 3122 3122 3122 3121 3121 3121 3120 3120 3120 3120 3120 3120 3120 3120 3120 3120 3120 3120 3120 3120 3120 3120 3120 3119 3118 3118 3118 3117 3117 3117 3116 3115 3114 3114 3113 3112 3112 3112 3111 3111 3110 3110 3109 3109 3108 3108 3107 3107 3107 3106 3106 3105 3105 3105 3104 3103 3103 3102 3102 3101 3101 3101 3100 3099 3099 3098 3097 3097 3096 3095 3095 3094 3093 3093 3092 3092 3091 3091 3090 3090 3089 3088 3088 3087 3087 3086 3085 3085 3084 3083 3082 3082 3081 3080 3080 3079 3078 3078 3077 3077 3076 3076
3121 3121 3121 3120 3120 3119 3119 3119 3119 3119 3119 3119 3119 3119 3119 3119 3119 3119 3119 3119 3119 3119 3118 3118 3118 3117 3117 3117 3116 3116 3115 3115 3114 3113 3112 3112 3111 3111 3110 3110 3109 3109 3108 3108 3107 3107 3107 3106 3106 3105 3105 3104 3104 3103 3103 3102 3102 3101 3101 3100 3099 3099 3098 3098 3097 3097 3096 3095 3095 3094 3093 3092 3092 3091 3090 3090 3089 3088 3088 3087 3087 3086 3086 3085 3084 3084 3083 3082 3082 3081 3080 3080 3079 3078 3077 3077 3076 3075 3075 3074 3073 3073 3072
3119 3119 3119 3118 3118 3118 3117 3117 3117 3117 3117 3117 3117 3117 3117 3117 3117 3117 3117 3117 3117 3117 3117 3117 3117 3117 3116 3115 3115 3115 3114 3114 3113 3112 3112 3111 3110 3109 3109 3108 3108 3107 3107 3107 3106 3106 3105 3105 3104 3104 3103 3102 3102 3102 3101 3101 3100 3099 3099 3098 3097 3097 3096 3096 3095 3095 3094 3093 3092 3092 3091 3090 3090 3089 3088 3087 3087 3086 3085 3085 3084 3083 3083 3082 3082 3081 3080 3080 3079 3078 3077 3077 3076 3075 3074 3074 3073 3072 3071 3071 3070 3069 3069
3117 3117 3117 3117 3116 3116 3116 3116 3116 3116 3116 3116 3116 3116 3116 3116 3116 3116 3116 3116 3116 3116 3116 3116 3115 3115 3115 3114 3114 3113 3113 3112 3112 3111 3111 3110 3109 3108 3107 3107 3107 3106 3106 3105 3105 3104 3104 3104 3103 3102 3102 3101 3100 3100 3099 3099 3098 3097 3097 3096 3095 3095 3094 3093 3093 3092 3092 3091 3090 3089 3088 3088 3087 3087 3086 3085 3084 3083 3082 3082 3081 3081 3080 3079 3079 3078 3077 3077 3076 3075 3074 3073 3073 3072 3071 3070 3070 3069 3068 3067 3067 3066 3065
3116 3116 3116 3115 3115 3115 3115 3115 3115 3115 3115 3115 3115 3115 3115 3115 3115 3115 3115 3115 3115 3115 3115 3114 3114 3114 3113 3113 3112 3112 3112 3111 3111 3110 3110 3109 3108 3107 3106 3105 3105 3105 3105 3104 3104 3103 3103 3103 3102 3101 3100 3099 3099 3098 3098 3097 3097 3096 3095 3094 3093 3093 3092 3091 3091 3090 3089 3088 3087 3087 3086 3085 3085 3084 3083 3082 3082 3081 3080 3079 3078 3078 3077 3077 3076 3075 3074 3073 3072 3072 3071 3070 3069 3069 3068 3067 3066 3066 3065 3064 3063 3062 3062
3114 3114 3114 3114 3114 3113 3113 3113 3113 3113 3113 3113 3113 3114 3114 3114 3114 3114 3114 3114 3114 3114 3114 3113 3113 3112 3112 3112 3111 3111 3110 3110 3110 3109 3109 3108 3107 3107 3106 3105 3104 3103 3103 3102 3102 3102 3102 3101 3101 3100 3099 3098 3097 3097 3097 3096 3095 3094 3094 3093 3092 3091 3090 3089 3089 3088 3087 3086 3085 3085 3084 3083 3082 3082 3081 3080 3079 3078 3077 3077 3076 3075 3074 3073 3073 3072 3071 3070 3069 3069 3068 3067 3066 3066 3065 3064 3063 3062 3062 3061 3060 3059 3058
3112 3112 3112 3112 3112 3112 3112 3112 3112 3112 3112 3112 3112 3112 3112 3113 3113 3113 3113 3113 3113 3112 3112 3112 3112 3112 3112 3111 3110 3110 3109 3109 3108 3108 3107 3107 3106 3106 3105 3104 3103 3102 3101 3101 3100 3100 3100 3099 3099 3098 3097 3097 3096 3096 3095 3094 3093 3093 3092 3091 3091 3090 3089 3088 3087 3086 3085 3084 3083 3083 3082 3081 3080 3079 3078 3077 3077 3076 3075 3074 3073 3072 3071 3071 3070 3069 3068 3067 3067 3066 3065 3064 3063 3062 3062 3061 3060 3060 3059 3058 3057 3056 3055
3111 3111 3111 3111 3110 3110 3110 3111 3111 3111 3111 3111 3111 3111 3112 3112 3112 3112 3112 3112 3112 3111 3111 3111 3111 3111 3110 3110 3110 3109 3108 3108 3107 3107 3106 3106 3105 3105 3104 3103 3102 3101 3100 3099 3098 3098 3097 3097 3097 3096 3095 3094 3094 3093 3092 3092 3091 3091 3090 3089 3089 3088 3087 3086 3085 3085 3084 3083 3082 3081 3080 3079 3078 3077 3076 3075 3074 3073 3072 3071 3070 3069 3068 3067 3067 3066 3065 3064 3064 3063 3062 3061 3061 3060 3059 3058 3058 3057 3056 3055 3054 3053 3052
3109 3109 3109 3109 3109 3109 3109 3110 3109 3109 3109 3109 3110 3110 3110 3110 3111 3111 3111 3111 3110 3110 3110 3109 3109 3109 3109 3109 3109 3108 3107 3107 3106 3106 3105 3105 3104 3103 3102 3102 3101 3100 3099 3098 3097 3096 3095 3095 3094 3093 3092 3092 3091 3091 3090 3089 3089 3088 3087 3087 3086 3086 3085 3084 3083 3083 3082 3081 3080 3079 3078 3077 3077 3075 3074 3073 3072 3071 3070 3069 3068 3067 3066 3065 3064 3063 3062 3062 3061 3060 3059 3058 3058 3057 3057 3056 3055 3055 3054 3053 3052 3050 3050
3108 3108 3108 3107 3107 3107 3108 3108 3108 3107 3107 3108 3109 3109 3109 3109 3109 3109 3109 3109 3109 3109 3108 3108 3107 3107 3107 3107 3107 3107 3106 3106 3105 3104 3104 3103 3103 3102 3102 3101 3100 3098 3097 3097 3096 3095 3094 3093 3093 3092 3091 3090 3089 3088 3088 3087 3087 3086 3085 3084 3084 3083 3082 3082 3081 3080 3080 3079 3078 3077 3076 3076 3075 3073 3072 3071 3070 3069 3068 3067 3066 3065 3064 3063 3062 3061 3060 3059 3058 3057 3057 3056 3055 3054 3054 3053 3053 3052 3051 3050 3049 3048 3047
3107 3107 3106 3106 3106 3106 3107 3107 3107 3106 3107 3107 3107 3108 3108 3108 3108 3108 3108 3108 3108 3107 3107 3107 3106 3106 3106 3106 3106 3105 3105 3104 3104 3103 3103 3102 3102 3101 3100 3099 3098 3097 3096 3095 3094 3093 3093 3092 3092 3092 3090 3089 3088 3087 3086 3085 3084 3084 3083 3082 3081 3081 3080 3079 3078 3077 3077 3076 3075 3075 3074 3073 3072 3071 3070 3069 3068 3067 3066 3065 3064 3063 3062 3061 3060 3059 3058 3057 3056 3055 3054 3053 3052 3052 3051 3051 3050 3049 3048 3047 3046 3045 3044
3105 3105 3104 3105 3105 3105 3105 3105 3105 3105 3105 3105 3106 3107 3107 3107 3107 3107 3107 3107 3107 3106 3106 3105 3105 3105 3104 3104 3104 3103 3103 3103 3103 3102 3102 3101 3100 3099 3098 3098 3097 3096 3095 3094 3093 3092 3091 3091 3091 3090 3090 3089 3087 3086 3085 3084 3083 3082 3081 3080 3079 3078 3077 3077 3076 3075 3074 3073 3072 3072 3071 3070 3069 3068 3067 3067 3066 3064 3063 3062 3062 3061 3060 3059 3058 3057 3056 3055 3054 3053 3052 3051 3050 3049 3048 3048 3047 3046 3045 3044 3043 3042 3041
3103 3103 3103 3103 3103 3103 3103 3103 3103 3103 3104 3104 3105 3105 3106 3106 3106 3106 3106 3106 3105 3105 3104 3104 3104 3103 3103 3103 3102 3102 3102 3101 3101 3101 3100 3100 3099 3098 3097 3096 3096 3095 3094 3093 3092 3091 3090 3089 3088 3088 3088 3087 3086 3085 3083 3082 3081 3080 3079 3078 3077 3076 3076 3075 3073 3072 3072 3071 3070 3069 3068 3067 3066 3065 3065 3064 3063 3062 3061 3060 3059 3058 3057 3056 3056 3055 3054 3053 3052 3051 3050 3049 3048 3047 3046 3045 3044 3043 3042 3041 3040 3039 3038
3102 3102 3102 3102 3101 3101 3102 3102 3102 3102 3102 3103 3103 3104 3104 3105 3105 3105 3104 3104 3104 3103 3103 3103 3102 3102 3102 3101 3101 3101 3100 3100 3099 3099 3098 3098 3097 3096 3096 3095 3094 3093 3092 3091 3090 3089 3088 3087 3086 3086 3085 3085 3085 3084 3082 3081 3079 3078 3077 3076 3075 3074 3073 3072 3071 3070 3069 3068 3067 3066 3065 3064 3063 3062 3061 3060 3059 3058 3057 3057 3056 3055 3054 3054 3053 3052 3051 3050 3049 3048 3047 3047 3046 3045 3044 3043 3042 3041 3040 3038 3037 3036 3035
3100 3100 3100 3100 3099 3099 3100 3100 3100 3101 3101 3102 3102 3102 3103 3103 3103 3103 3103 3103 3102 3102 3102 3102 3101 3101 3100 3100 3099 3099 3099 3098 3097 3097 3097 3096 3095 3094 3094 3093 3092 3091 3090 3089 3088 3087 3086 3085 3084 3083 3082 3082 3082 3082 3081 3080 3078 3076 3075 3074 3073 3072 3071 3070 3068 3067 3066 3065 3064 3063 3062 3061 3060 3059 3058 3057 3056 3055 3054 3053 3052 3051 3051 3050 3049 3049 3048 3047 3047 3046 3045 3044 3043 3042 3041 3040 3039 3038 3037 3035 3034 3033 3032
3098 3099 3099 3098 3098 3098 3098 3099 3099 3099 3100 3100 3101 3101 3102 3102 3102 3102 3102 3102 3101 3101 3100 3100 3100 3099 3099 3099 3098 3097 3097 3097 3096 3095 3095 3094 3093 3092 3092 3091 3090 3089 3088 3087 3086 3085 3084 3083 3082 3081 3080 3079 3078 3078 3077 3077 3076 3074 3073 3071 3070 3069 3068 3067 3066 3064 3063 3062 3061 3060 3059 3058 3057 3056 3055 3053 3052 3051 3050 3049 3048 3047 3046 3046 3045 3044 3044 3043 3042 3042 3041 3040 3039 3038 3037 3036 3035 3034 3033 3032 3030 3029 3028